Powrót do katalogu

DMSP 5D-3 F17

USA 191

AktywnyPogodaSSO
NORAD 29522·PAYLOAD·🇺🇸 United States

Wystrzelony Nov 4, 2006 z Vandenberg Space Force Base

Loading…

Następne Przeloty (najbliższe 24 godziny)

TLE

ŚwieżeSource: Space-Track

Epoka: Sep 14, 2026, 14:51 UTC

1 29522U 06050A   26257.61915947  .00000093  00000-0  70534-4 0  9990
2 29522  98.7424 262.3774 0010517 154.7528 205.4161 14.15007598 25076

Śledź DMSP 5D-3 F17 w czasie rzeczywistym z AllMySat

Download on the App Store